Regional Weather Roundup
Issued by NWS Cleveland, OH

Home | Current Version | Previous Version | Text Only | Print | Product List | Glossary On
Versions: 1 2 3 4 5 6 7 8 9 10 11 12 13 14 15 16 17 18 19 20 21 22 23 24 25 26 27 28 29 30 31 32 33 34 35 36 37 38 39 40 41 42 43 44 45 46 47 48 49 50
000
ASUS41 KCLE 250212
RWRCLE
OHIO REGIONAL WEATHER ROUNDUP
NATIONAL WEATHER SERVICE WILMINGTON, OH
900 PM EST WED FEB 24 2021

NOTE: "FAIR" INDICATES FEW OR NO CLOUDS BELOW 12,000 FEET WITH NO
SIGNIFICANT WEATHER AND/OR OBSTRUCTIONS TO VISIBILITY.

OHZ001>008-015>018-024>027-034-035-043-044-250300-
   NORTHWEST OHIO

CITY           SKY/WX    TMP DP  RH WIND       PRES   REMARKS
DEFIANCE       CLOUDY    37  28  70 W6        30.09R
FINDLAY        CLOUDY    38  31  76 NW14G21   30.06R
TOLEDO EXPRESS CLOUDY    38  29  70 W9        30.05R
TOLEDO EXEC    CLOUDY    38  30  73 W12       30.06R
LIMA           CLOUDY    37  30  75 NW18G24   30.07R
$$

OHZ009>014-019>023-028>033-038-089-250300-
   NORTHEAST OHIO

CITY           SKY/WX    TMP DP  RH WIND       PRES   REMARKS
CLE-HOPKINS    CLOUDY    38  30  73 W15G22    29.98R
CLE-LAKEFRONT  CLOUDY    36  31  82 W16       29.98R
CUY CO. ARPT   CLOUDY    37  30  75 W18G24    29.97R
LORAIN-ELYRIA  CLOUDY    38  30  73 NW18G26   30.01R
ASHTABULA      CLOUDY    39  31  72 NW12G20   29.96R
AKRON-CANTON   CLOUDY    41  33  73 NW21G26   29.96R
WOOSTER        MOCLDY    38  31  76 NW16G28   30.00R
MANSFIELD      MOCLDY    37  30  75 W12G20    30.01R
YOUNGSTOWN     CLOUDY    41  30  65 W18G29    29.94R
$$

OHZ042-051>053-060>062-070>072-077>081-250300-
  SOUTHWEST OHIO

CITY           SKY/WX    TMP DP  RH WIND       PRES   REMARKS
CINC-COVINGTON FAIR      45  31  58 NW15      30.06R
CINC-LUNKEN    FAIR      46  32  58 N15G30    30.08R
HAMILTON       FAIR      42  32  67 NW16G24   30.11R
DAYTON         MOCLDY    38  30  73 NW9       30.09R
WRIGHT-PAT AFB MOCLDY    39  31  72 NW9       30.07R
DAYTON GENERAL FAIR      41  32  70 NW16G23   30.08R
WILMINGTON     FAIR      40  32  73 NW17      30.06R
$$

OHZ036-037-039>041-045>050-054>059-063>069-073>076-082>088-250300-
  CENTRAL AND SOUTHEAST OHIO

CITY           SKY/WX    TMP DP  RH WIND       PRES   REMARKS
COLUMBUS       MOCLDY    41  33  73 NW17G26   30.03R
OSU AIRPORT    FAIR      41  32  70 NW13      30.04R
BOLTON FIELD   FAIR      39  33  78 NW13G18   30.05R
RICKENBACK AFB FAIR      40  32  73 NW14      30.04R
NEWARK         FAIR      42  32  67 NW16G22   30.02R
MARION         MOCLDY    37  30  75 NW13      30.05R
LANCASTER      FAIR      42  33  70 NW10      30.03R
ZANESVILLE     FAIR      44  34  67 NW17G24   29.99R
NEW PHILLY     MOCLDY    43  34  70 NW8G20    29.99R
$$



USA.gov is the U.S. government's official web portal to all federal, state and local government web resources and services.